THORAD AGENA D DEB, 4643

Orbit data source: Space-Track

THORAD AGENA D DEB, 4643 is space debris in SSO originally from a launch on Wed, 08 Apr 1970 UTC launched from the Air Force Western Test Range (AFWTR). Debris objects in space refer to the collection of defunct objects orbiting the Earth. Examples of debris include non-operational satellites, rocket bodies, and fragments generated from explosions, collisions, or faulty payload assembly.

Loading next visibility...
Identifier
4643, 1970-025AB
Orbit
SSO
Country
Flag of USUS
Related business
Manufacturer
Unknown
Mission
Spacecraft
Bus & Motor
Unknown
Mass
Unknown
Launch date (UTC)
1970-04-08 (56 years ago)
Launch vehicle
Unknown
Launch site
Air Force Western Test Range (AFWTR)
Object type
Payload
Rocket body
Debris
Shape & HBR
Unknown shape, 0.2 m
Radar Cross Section
Small (<0.1 m²)

Expand to show TLE details & history
Last TLE update: 1 day ago

TLE from 1 day ago
0 THORAD AGENA D DEB
1  4643U 70025AB  25296.53389471  .00000214  00000-0  37047-3 0  9996
2  4643  99.4115 151.2136 0011327  95.7909 324.4469 13.55142716739758
Epoch: 2025-10-23T12:48Z
TLE epoch observation values (Epoch: 2025-10-23T12:48:48.502Z)
Latitude
58.93925°
Longitude
-89.06984°
Altitude
1,056.451 km
Speed
7.333 km/s
True Right ascension
09h 01m 17s
True Declination
58° 47' 35"
Sunlit
Object was in daylight at epoch
Visualization orbit readout
Latitude
Unknown
Longitude
Unknown
Altitude
Unknown
Speed
Unknown
Apparent Right ascension
Unknown
Apparent Declination
Unknown
Sunlit
N/A
Visualization observer readout
Local Sidereal Time
10:53:13
Azimuth
Unknown
Elevation
Unknown
Doppler factor
Unknown
Orbital elements
Apogee altitude
1,059.092 km
Perigee altitude
1,042.263 km
Semi-major axis
7,428.814 km
Eccentricity
0.00113
Inclination
99.4115°
RAAN
151.2136°
Arg. of periapsis
95.7909°
True anomaly
324.37134°
Mean anomaly
324.4469°
Eccentric anomaly
324.40913°
Mean motion
3.38972 °/min
Orbital period
106.2 mins
BSTAR
0.00037047

Documentation

Showing up to 5 results
|